RYR6015 LFBZ-EGPH

Flight info

Callsign RYR6015
Flight time N/A
Altitude 39000
Route VAVIX DCT CNA DCT TUPAR UY120 AKIKI UN867 VASUX DCT TNT UN57 POL UN601 RIBEL DCT INPIP
Aircraft B738/M-SDE2E3FGHIRWXY/LB1

Departure

Time 2026-04-28 17:29
Airport Biarritz Pays Basque airport (LFBZ)

Arrival

Time N/A
Airport Edinburgh Airport (EGPH)
Time Latitude Longitude Altitude Speed Heading
2026-04-28 16:48 43.47137 -1.53001 241 ft 0 kts 359°
2026-04-28 17:17 43.47123 -1.53000 241 ft 3 kts
2026-04-28 17:17 43.47102 -1.53002 241 ft 3 kts
2026-04-28 17:17 43.47082 -1.53006 241 ft 3 kts 15°
2026-04-28 17:17 43.47064 -1.53016 241 ft 3 kts 38°
2026-04-28 17:18 43.47054 -1.53032 241 ft 2 kts 82°
2026-04-28 17:18 43.47053 -1.53038 241 ft 0 kts 89°
2026-04-28 17:21 43.47054 -1.53019 241 ft 8 kts 89°
2026-04-28 17:22 43.46996 -1.52832 241 ft 11 kts 107°
2026-04-28 17:22 43.46994 -1.52729 241 ft 11 kts 88°
2026-04-28 17:22 43.46995 -1.52628 241 ft 10 kts 90°
2026-04-28 17:23 43.46996 -1.52435 241 ft 10 kts 89°
2026-04-28 17:23 43.46996 -1.52343 241 ft 10 kts 89°
2026-04-28 17:23 43.46997 -1.52253 241 ft 9 kts 89°
2026-04-28 17:23 43.46968 -1.52179 241 ft 9 kts 149°
2026-04-28 17:24 43.46934 -1.52175 240 ft 4 kts 178°
2026-04-28 17:24 43.46905 -1.52174 240 ft 4 kts 178°
2026-04-28 17:24 43.46850 -1.52143 240 ft 15 kts 127°
2026-04-28 17:24 43.46844 -1.51981 241 ft 18 kts 88°
2026-04-28 17:25 43.46845 -1.51813 240 ft 17 kts 89°
2026-04-28 17:25 43.46848 -1.51496 240 ft 16 kts 89°
2026-04-28 17:25 43.46850 -1.51347 240 ft 15 kts 89°
2026-04-28 17:26 43.46851 -1.51203 240 ft 15 kts 89°
2026-04-28 17:26 43.46856 -1.51067 240 ft 14 kts 73°
2026-04-28 17:26 43.46892 -1.50971 241 ft 6 kts 83°
2026-04-28 17:26 43.46879 -1.50959 241 ft 2 kts 163°
2026-04-28 17:27 43.46864 -1.50971 241 ft 4 kts 226°
2026-04-28 17:27 43.46855 -1.51014 241 ft 5 kts 269°
2026-04-28 17:27 43.46854 -1.51056 240 ft 3 kts 268°
2026-04-28 17:27 43.46850 -1.51305 240 ft 63 kts 269°
2026-04-28 17:28 43.46841 -1.52279 240 ft 136 kts 269°
2026-04-28 17:28 43.46837 -1.52931 243 ft 164 kts 270°
2026-04-28 17:28 43.46799 -1.54617 749 ft 187 kts 268°
2026-04-28 17:29 43.46688 -1.56526 1324 ft 207 kts 266°
2026-04-28 17:29 43.46609 -1.58499 2102 ft 208 kts 271°
2026-04-28 17:29 43.46754 -1.60516 2520 ft 223 kts 291°
2026-04-28 17:30 43.49299 -1.62955 3463 ft 243 kts 359°
2026-04-28 17:30 43.52689 -1.61827 4555 ft 267 kts 18°
2026-04-28 17:30 43.54487 -1.61031 5290 ft 273 kts 17°
2026-04-28 17:31 43.56309 -1.60253 6111 ft 275 kts 16°
2026-04-28 17:31 43.59645 -1.57672 7630 ft 285 kts 46°
2026-04-28 17:32 43.62393 -1.53571 9097 ft 295 kts 47°
2026-04-28 17:32 43.63789 -1.51464 9801 ft 300 kts 47°
2026-04-28 17:32 43.65221 -1.49309 10326 ft 313 kts 47°
2026-04-28 17:32 43.66752 -1.47015 10489 ft 337 kts 47°
2026-04-28 17:33 43.68390 -1.44567 10815 ft 354 kts 46°
2026-04-28 17:33 43.70079 -1.42046 11423 ft 361 kts 46°
2026-04-28 17:33 43.71796 -1.39482 12100 ft 366 kts 46°
2026-04-28 17:33 43.72944 -1.37766 12547 ft 369 kts 46°
2026-04-28 17:34 43.75289 -1.34265 13509 ft 374 kts 46°
2026-04-28 17:34 43.77070 -1.31603 14272 ft 378 kts 46°
2026-04-28 17:34 43.78858 -1.28922 15010 ft 380 kts 47°
2026-04-28 17:34 43.80707 -1.26268 15729 ft 386 kts 43°
2026-04-28 17:35 43.82703 -1.23782 16468 ft 388 kts 40°
2026-04-28 17:35 43.84774 -1.21341 17078 ft 393 kts 39°
2026-04-28 17:35 43.86881 -1.18888 17733 ft 397 kts 39°
2026-04-28 17:35 43.88996 -1.16412 18393 ft 401 kts 40°
2026-04-28 17:36 43.91127 -1.13893 19031 ft 404 kts 40°
2026-04-28 17:36 43.93273 -1.11334 19625 ft 409 kts 40°
2026-04-28 17:36 43.95435 -1.08739 20210 ft 413 kts 40°
2026-04-28 17:36 43.97606 -1.06123 20784 ft 417 kts 40°
2026-04-28 17:37 43.99808 -1.03466 21346 ft 420 kts 40°
2026-04-28 17:37 44.02021 -1.00789 21856 ft 425 kts 40°
2026-04-28 17:37 44.04267 -0.98068 22255 ft 432 kts 40°
2026-04-28 17:37 44.06543 -0.95306 22744 ft 436 kts 40°
2026-04-28 17:38 44.08835 -0.92525 23291 ft 438 kts 40°
2026-04-28 17:38 44.11139 -0.89727 23786 ft 441 kts 40°
2026-04-28 17:38 44.13466 -0.86899 23923 ft 446 kts 40°
2026-04-28 17:38 44.15798 -0.84060 23929 ft 444 kts 40°
2026-04-28 17:39 44.18121 -0.81228 23933 ft 444 kts 40°
2026-04-28 17:39 44.20458 -0.78378 24044 ft 449 kts 40°
2026-04-28 17:39 44.25177 -0.72614 25092 ft 452 kts 40°
2026-04-28 17:40 44.27687 -0.69985 25555 ft 452 kts 26°
2026-04-28 17:40 44.30609 -0.68440 25926 ft 450 kts
2026-04-28 17:40 44.33683 -0.67576 26348 ft 451 kts
2026-04-28 17:40 44.36781 -0.66788 26729 ft 455 kts
2026-04-28 17:41 44.39911 -0.66010 27107 ft 458 kts
2026-04-28 17:41 44.43048 -0.65217 27508 ft 460 kts
2026-04-28 17:41 44.46217 -0.64397 27873 ft 463 kts
2026-04-28 17:41 44.49391 -0.63556 28218 ft 467 kts
2026-04-28 17:42 44.52591 -0.62696 28563 ft 469 kts
2026-04-28 17:42 44.54717 -0.62120 28782 ft 471 kts
2026-04-28 17:42 44.59081 -0.60929 29222 ft 475 kts
2026-04-28 17:42 44.62335 -0.60039 29515 ft 478 kts
2026-04-28 17:43 44.65608 -0.59143 29811 ft 480 kts
2026-04-28 17:43 44.68851 -0.58254 30118 ft 483 kts
2026-04-28 17:43 44.72196 -0.57336 30395 ft 485 kts
2026-04-28 17:43 44.75520 -0.56424 30671 ft 487 kts
2026-04-28 17:44 44.78854 -0.55509 30949 ft 489 kts
2026-04-28 17:44 44.82196 -0.54591 31220 ft 491 kts
2026-04-28 17:44 44.85546 -0.53669 31589 ft 490 kts
2026-04-28 17:44 44.88881 -0.52749 32023 ft 487 kts
2026-04-28 17:45 44.92211 -0.51829 32432 ft 486 kts
2026-04-28 17:45 44.95521 -0.50915 32766 ft 486 kts
2026-04-28 17:45 44.98838 -0.49998 33049 ft 487 kts
2026-04-28 17:45 45.02164 -0.49078 33379 ft 486 kts
2026-04-28 17:46 45.05471 -0.48162 33739 ft 484 kts
2026-04-28 17:46 45.08797 -0.47241 34062 ft 483 kts
2026-04-28 17:46 45.12076 -0.46331 34341 ft 483 kts
2026-04-28 17:46 45.15372 -0.45414 34632 ft 483 kts
2026-04-28 17:47 45.18661 -0.44498 34973 ft 481 kts
2026-04-28 17:47 45.21935 -0.43585 35334 ft 479 kts
2026-04-28 17:47 45.25201 -0.42673 35640 ft 477 kts
2026-04-28 17:48 45.31708 -0.40855 36176 ft 476 kts
2026-04-28 17:48 45.34997 -0.39935 36444 ft 475 kts
2026-04-28 17:48 45.38238 -0.39026 36687 ft 475 kts
2026-04-28 17:48 45.41460 -0.38121 37106 ft 469 kts
2026-04-28 17:49 45.44620 -0.37229 37690 ft 459 kts
2026-04-28 17:49 45.47744 -0.36350 38001 ft 456 kts
2026-04-28 17:49 45.49805 -0.35771 38115 ft 457 kts
2026-04-28 17:49 45.53812 -0.34646 38285 ft 458 kts
2026-04-28 17:50 45.55885 -0.34062 38367 ft 459 kts
2026-04-28 17:50 45.59017 -0.33178 38520 ft 459 kts
2026-04-28 17:50 45.62157 -0.32323 38713 ft 457 kts
2026-04-28 17:50 45.65301 -0.32035 38880 ft 451 kts 354°
2026-04-28 17:51 45.68416 -0.32411 38909 ft 449 kts 346°
2026-04-28 17:51 45.74372 -0.34799 38917 ft 444 kts 338°
2026-04-28 17:52 45.80231 -0.37546 38919 ft 441 kts 338°
2026-04-28 17:52 45.88973 -0.41574 38910 ft 439 kts 338°
2026-04-28 17:53 45.94787 -0.44220 38921 ft 438 kts 338°
2026-04-28 17:53 46.00587 -0.46857 38917 ft 437 kts 338°
2026-04-28 17:54 46.06399 -0.49508 38933 ft 438 kts 339°
2026-04-28 17:54 46.12213 -0.52166 38937 ft 439 kts 339°
2026-04-28 17:55 46.18043 -0.54838 38944 ft 441 kts 339°
2026-04-28 17:55 46.23907 -0.57532 38946 ft 443 kts 339°
2026-04-28 17:56 46.29791 -0.60242 38949 ft 444 kts 339°
2026-04-28 17:56 46.35694 -0.62966 38946 ft 446 kts 339°
2026-04-28 17:57 46.41616 -0.65704 38944 ft 448 kts 339°
2026-04-28 17:57 46.47298 -0.69263 38950 ft 444 kts 330°
2026-04-28 17:58 46.52786 -0.73392 38950 ft 444 kts 329°
2026-04-28 17:58 46.58275 -0.77508 38954 ft 444 kts 330°
2026-04-28 17:59 46.63788 -0.81575 38954 ft 444 kts 330°
2026-04-28 17:59 46.69303 -0.85627 38952 ft 443 kts 330°
2026-04-28 18:00 46.74799 -0.89675 38965 ft 442 kts 330°
2026-04-28 18:00 46.80280 -0.93722 38971 ft 441 kts 330°
2026-04-28 18:01 46.85750 -0.97772 38971 ft 440 kts 330°
2026-04-28 18:01 46.91214 -1.01821 38971 ft 440 kts 332°
2026-04-28 18:02 46.97067 -1.04470 38974 ft 445 kts 351°
2026-04-28 18:02 47.03250 -1.05300 38981 ft 447 kts 353°
2026-04-28 18:03 47.09456 -1.06024 38969 ft 449 kts 353°
2026-04-28 18:03 47.15712 -1.06822 38989 ft 454 kts 353°
2026-04-28 18:04 47.22038 -1.07681 39008 ft 458 kts 353°
2026-04-28 18:04 47.28421 -1.08550 39007 ft 463 kts 353°
2026-04-28 18:05 47.33765 -1.09277 39003 ft 463 kts 353°
2026-04-28 18:05 47.41152 -1.10282 38995 ft 454 kts 353°
2026-04-28 18:06 47.47424 -1.11141 38996 ft 452 kts 353°
2026-04-28 18:06 47.53677 -1.11999 39000 ft 451 kts 353°
2026-04-28 18:07 47.59919 -1.12865 39018 ft 450 kts 353°
2026-04-28 18:07 47.66157 -1.13736 39027 ft 451 kts 353°
2026-04-28 18:08 47.72418 -1.14612 39021 ft 452 kts 353°
2026-04-28 18:08 47.78695 -1.15491 39029 ft 454 kts 353°
2026-04-28 18:09 47.84993 -1.16375 39031 ft 455 kts 353°
2026-04-28 18:09 47.91312 -1.17264 39029 ft 457 kts 353°
2026-04-28 18:10 47.97653 -1.18158 39029 ft 459 kts 353°
2026-04-28 18:10 48.04006 -1.19056 39030 ft 459 kts 354°
2026-04-28 18:11 48.10372 -1.19959 39037 ft 459 kts 354°
2026-04-28 18:11 48.16737 -1.20862 39041 ft 458 kts 354°
2026-04-28 18:12 48.23073 -1.21762 39041 ft 457 kts 354°
2026-04-28 18:12 48.29398 -1.22665 39043 ft 455 kts 354°
2026-04-28 18:13 48.35698 -1.23569 39051 ft 454 kts 354°
2026-04-28 18:13 48.41987 -1.24472 39056 ft 453 kts 354°
2026-04-28 18:14 48.48249 -1.25373 39056 ft 452 kts 354°
2026-04-28 18:14 48.54509 -1.26276 39064 ft 451 kts 354°
2026-04-28 18:15 48.60765 -1.27179 39066 ft 451 kts 354°
2026-04-28 18:15 48.67007 -1.28083 39065 ft 451 kts 354°
2026-04-28 18:16 48.73248 -1.28991 39076 ft 450 kts 354°
2026-04-28 18:16 48.79449 -1.29897 39090 ft 450 kts 354°
2026-04-28 18:17 48.85725 -1.30811 39093 ft 450 kts 354°
2026-04-28 18:17 48.91966 -1.31724 39104 ft 451 kts 354°
2026-04-28 18:18 48.98216 -1.32641 39109 ft 451 kts 354°
2026-04-28 18:18 49.03414 -1.33409 39110 ft 452 kts 354°
2026-04-28 18:19 49.10741 -1.34488 39114 ft 453 kts 354°
2026-04-28 18:19 49.17017 -1.35416 39121 ft 453 kts 355°
2026-04-28 18:20 49.23287 -1.36342 39128 ft 453 kts 355°
2026-04-28 18:20 49.29557 -1.37277 39136 ft 453 kts 355°
2026-04-28 18:21 49.35879 -1.38219 39145 ft 453 kts 355°
2026-04-28 18:21 49.42110 -1.39149 39142 ft 452 kts 355°
2026-04-28 18:22 49.48410 -1.40093 39145 ft 451 kts 355°
2026-04-28 18:22 49.54362 -1.40987 39152 ft 450 kts 355°
2026-04-28 18:23 49.60639 -1.41716 39146 ft 448 kts
2026-04-28 18:23 49.66815 -1.41188 39154 ft 447 kts